{"data":{"norad_id":66299,"epoch":"2026-05-24T13:36:15.162624Z","epoch_age_seconds":122908,"freshness":"FRESH","line1":"1 66299U 25248G   26144.56684216  .00003704  00000+0  18035-3 0  9991","line2":"2 66299  45.4017 247.7406 0006442 272.9910  87.0239 15.20262435 30924","mean_motion":15.20262435,"eccentricity":0.0006442,"inclination_deg":45.4017,"raan_deg":247.7406,"arg_perigee_deg":272.991,"mean_anomaly_deg":87.0239,"bstar":0.00018035,"rev_number":3092,"period_min":94.720488176767,"perigee_km":500.61421276158,"apogee_km":509.4825087804,"semimajor_km":6883.185360771,"source":"CELESTRAK","updated_at":"2026-05-25T13:38:06.128313Z"}}